CW5272 Weather Reports


Display with metric or nautical units.
time (UTC)temp
F
wind
direction
speed
MPH
gust
MPH
rain 1hr
in
rain 24hr
in
rain mn
in
humidity
%
barometer
mb
20171122070319 67 265 2.0 2.0 0.00 0.00 0.00 68 1018.2
20171122064319 67 264 0.0 0.0 0.00 0.00 0.00 67 1018.0
20171122061318 68 264 0.0 3.0 0.00 0.00 0.00 66 1018.0
20171122060319 68 265 0.0 0.0 0.00 0.00 0.00 67 1018.0
20171122055318 68 265 3.0 6.0 0.00 0.00 0.00 66 1017.9
20171122054318 68 285 4.0 5.0 0.00 0.00 0.00 68 1017.8
20171122053318 69 288 4.0 5.0 0.00 0.00 0.00 65 1017.8
20171122052318 70 325 3.0 3.0 0.00 0.00 0.00 65 1017.7
20171121222315 76 149 0.0 3.0 0.00 0.00 0.00 57 1016.0
20171121221314 76 96 0.0 1.0 0.00 0.00 0.00 60 1016.1
20171121212314 76 138 0.0 3.0 0.00 0.00 0.00 56 1016.7
20171121211314 77 165 0.0 4.0 0.00 0.00 0.00 57 1016.9
20171121204313 77 178 0.0 3.0 0.00 0.00 0.00 60 1017.0
20171121203314 75 179 1.0 2.0 0.00 0.00 0.00 61 1017.0
20171121200313 74 259 0.0 2.0 0.00 0.00 0.00 59 1017.4
20171121194314 73 259 1.0 3.0 0.00 0.00 0.00 60 1017.8
20171121190313 73 246 0.0 1.0 0.00 0.00 0.00 59 1018.3
20171121185313 74 246 0.0 0.0 0.00 0.00 0.00 61 1018.5
20171121181312 72 116 0.0 1.0 0.00 0.00 0.00 62 1018.9
20171121180312 71 116 0.0 0.0 0.00 0.00 0.00 67 1018.9
20171121174312 68 116 0.0 2.0 0.00 0.00 0.00 69 1018.9
20171121173312 67 116 0.0 0.0 0.00 0.00 0.00 74 1018.9
20171121172332 65 115 0.0 0.0 0.00 0.00 0.00 74 1019.2
20171121170332 65 115 0.0 0.0 0.00 0.00 0.00 74 1019.1
20171121165312 65 116 0.0 0.0 0.00 0.00 0.00 75 1019.2
20171121164312 64 115 0.0 0.0 0.00 0.00 0.00 73 1019.0
20171121162311 64 116 0.0 0.0 0.00 0.00 0.00 73 1019.0
20171121161311 63 115 0.0 1.0 0.00 0.00 0.00 73 1019.0
20171121160311 63 115 0.0 1.0 0.00 0.00 0.00 73 1019.0
20171121153311 62 70 0.0 3.0 0.00 0.00 0.00 74 1018.9
20171121152311 62 67 3.0 5.0 0.00 0.00 0.00 72 1018.6
20171121151311 64 319 2.0 3.0 0.00 0.00 0.00 72 1018.8
20171121150311 66 319 0.0 0.0 0.00 0.00 0.00 65 1018.8
20171121144311 66 319 0.0 5.0 0.00 0.00 0.00 63 1018.1
20171121142311 65 360 0.0 0.0 0.00 0.00 0.00 65 1018.0
20171121140310 66 360 0.0 0.0 0.00 0.00 0.00 64 1017.8
20171121134310 67 360 2.0 3.0 0.00 0.00 0.00 63 1017.5
20171121130310 66 360 3.0 3.0 0.00 0.00 0.00 64 1017.6
20171121125310 66 360 0.0 4.0 0.00 0.00 0.00 65 1017.7
20171121124330 66 5 0.0 3.0 0.00 0.00 0.00 65 1017.7
20171121123310 66 360 3.0 3.0 0.00 0.00 0.00 67 1017.7
20171121120310 66 38 0.0 3.0 0.00 0.00 0.00 68 1017.1
20171121115309 66 38 0.0 1.0 0.00 0.00 0.00 69 1017.3
20171121113309 65 38 0.0 1.0 0.00 0.00 0.00 70 1017.5
20171121112329 65 38 0.0 3.0 0.00 0.00 0.00 70 1017.5
20171121110309 65 38 0.0 0.0 0.00 0.00 0.00 71 1017.6
20171121105309 65 38 0.0 2.0 0.00 0.00 0.00 71 1017.7
20171121102309 64 38 0.0 3.0 0.00 0.00 0.00 73 1017.6
20171121101309 64 38 3.0 3.0 0.00 0.00 0.00 73 1017.6
20171121095308 64 38 0.0 0.0 0.00 0.00 0.00 74 1017.7
20171121094308 63 38 0.0 4.0 0.00 0.00 0.00 74 1017.7
20171121093308 64 38 0.0 3.0 0.00 0.00 0.00 74 1017.7
20171121092308 63 312 0.0 1.0 0.00 0.00 0.00 72 1018.1
20171121090308 64 313 0.0 0.0 0.00 0.00 0.00 72 1018.1
20171121085308 63 313 0.0 3.0 0.00 0.00 0.00 70 1017.7
20171121075308 63 298 0.0 0.0 0.00 0.00 0.00 67 1018.0